Time,TemperatureF,DewpointF,PressureIn,WindDirection,WindDirectionDegrees,WindSpeedMPH,WindSpeedGustMPH,Humidity,HourlyPrecipIn,Conditions,Clouds,dailyrainin,SoftwareType,DateUTC
2013-07-02 00:02:00,69.1,59.0,28.67,South,169,4.0,4.0,70,0.00,,,-99.99,wx200d/1.3,2013-07-02 04:02:00,
2013-07-02 00:04:00,69.1,59.0,28.67,SSW,203,2.2,2.2,70,0.00,,,-99.99,wx200d/1.3,2013-07-02 04:04:00,
2013-07-02 00:06:00,69.1,59.0,28.67,South,172,0.0,0.0,70,0.00,,,-99.99,wx200d/1.3,2013-07-02 04:06:00,
2013-07-02 00:12:00,69.1,59.0,28.67,NW,307,0.0,2.7,70,0.00,,,-99.99,wx200d/1.3,2013-07-02 04:12:00,
2013-07-02 00:18:00,69.1,59.0,28.67,West,263,2.7,3.6,70,0.00,,,-99.99,wx200d/1.3,2013-07-02 04:18:00,
2013-07-02 00:24:00,68.9,59.0,28.67,SW,226,0.0,0.0,70,0.00,,,-99.99,wx200d/1.3,2013-07-02 04:24:00,
2013-07-02 00:30:00,68.9,59.0,28.67,SSW,195,2.7,2.7,70,0.00,,,-99.99,wx200d/1.3,2013-07-02 04:30:00,
2013-07-02 00:36:00,68.9,59.0,28.67,SSE,151,0.0,3.1,70,0.00,,,-99.99,wx200d/1.3,2013-07-02 04:36:00,
2013-07-02 00:42:00,68.9,59.0,28.67,South,181,0.0,2.7,70,0.00,,,-99.99,wx200d/1.3,2013-07-02 04:42:00,
2013-07-02 00:48:00,68.9,59.0,28.67,SSW,197,0.0,0.0,70,0.00,,,-99.99,wx200d/1.3,2013-07-02 04:48:00,
2013-07-02 00:54:00,68.9,59.0,28.67,West,279,2.7,0.0,70,0.00,,,-99.99,wx200d/1.3,2013-07-02 04:54:00,
2013-07-02 01:00:00,68.7,57.0,28.67,SSW,206,2.2,4.0,70,0.00,,,-99.99,wx200d/1.3,2013-07-02 05:00:00,
2013-07-02 01:06:00,68.7,57.0,28.67,SSW,212,2.2,0.0,70,0.00,,,-99.99,wx200d/1.3,2013-07-02 05:06:00,
2013-07-02 01:12:00,68.7,57.0,28.67,SSW,195,0.0,7.2,70,0.00,,,-99.99,wx200d/1.3,2013-07-02 05:12:00,
2013-07-02 01:18:00,68.7,57.0,28.67,SSW,197,0.0,0.0,70,0.00,,,-99.99,wx200d/1.3,2013-07-02 05:18:00,
2013-07-02 01:24:00,68.7,57.0,28.67,WSW,250,0.0,0.0,70,0.00,,,-99.99,wx200d/1.3,2013-07-02 05:24:00,
2013-07-02 01:30:00,68.7,57.0,28.67,South,191,2.2,2.7,70,0.00,,,-99.99,wx200d/1.3,2013-07-02 05:30:00,
2013-07-02 01:36:00,68.7,57.0,28.67,South,188,2.7,4.0,70,0.00,,,-99.99,wx200d/1.3,2013-07-02 05:36:00,
2013-07-02 01:42:00,68.7,57.0,28.67,SW,223,2.2,2.2,70,0.00,,,-99.99,wx200d/1.3,2013-07-02 05:42:00,
2013-07-02 01:48:00,68.7,57.0,28.67,WSW,237,3.1,3.1,70,0.00,,,-99.99,wx200d/1.3,2013-07-02 05:48:00,
2013-07-02 01:54:00,68.7,57.0,28.67,West,264,2.7,0.0,70,0.00,,,-99.99,wx200d/1.3,2013-07-02 05:54:00,
2013-07-02 02:00:00,68.7,57.0,28.67,South,170,0.0,2.7,70,0.00,,,-99.99,wx200d/1.3,2013-07-02 06:00:00,
2013-07-02 02:06:00,68.7,57.0,28.67,SSW,200,0.0,0.0,70,0.00,,,-99.99,wx200d/1.3,2013-07-02 06:06:00,
2013-07-02 02:12:00,68.7,57.0,28.67,South,191,2.7,3.1,70,0.00,,,-99.99,wx200d/1.3,2013-07-02 06:12:00,
2013-07-02 02:18:00,68.7,57.0,28.67,West,265,2.7,3.1,70,0.00,,,-99.99,wx200d/1.3,2013-07-02 06:18:00,
2013-07-02 02:24:00,68.7,57.0,28.67,SSE,159,0.0,2.7,70,0.00,,,-99.99,wx200d/1.3,2013-07-02 06:24:00,
2013-07-02 02:30:00,68.7,57.0,28.67,South,178,0.0,3.6,70,0.00,,,-99.99,wx200d/1.3,2013-07-02 06:30:00,
2013-07-02 02:36:00,68.7,57.0,28.67,SSW,199,4.0,0.0,70,0.00,,,-99.99,wx200d/1.3,2013-07-02 06:36:00,
2013-07-02 02:42:00,68.9,59.0,28.67,SW,217,0.0,0.0,70,0.00,,,-99.99,wx200d/1.3,2013-07-02 06:42:00,
2013-07-02 02:48:00,68.9,59.0,28.67,WSW,237,0.0,0.0,70,0.00,,,-99.99,wx200d/1.3,2013-07-02 06:48:00,
2013-07-02 02:54:00,68.9,59.0,28.67,SW,233,2.2,2.2,70,0.00,,,-99.99,wx200d/1.3,2013-07-02 06:54:00,
2013-07-02 03:00:00,68.9,59.0,28.67,WSW,243,2.2,3.1,70,0.00,,,-99.99,wx200d/1.3,2013-07-02 07:00:00,
2013-07-02 03:06:00,68.9,59.0,28.67,WSW,255,0.0,0.0,70,0.00,,,-99.99,wx200d/1.3,2013-07-02 07:06:00,
2013-07-02 03:12:00,68.9,59.0,28.67,WSW,250,0.0,3.1,70,0.00,,,-99.99,wx200d/1.3,2013-07-02 07:12:00,
2013-07-02 03:18:00,68.9,59.0,28.67,SW,232,0.0,0.0,70,0.00,,,-99.99,wx200d/1.3,2013-07-02 07:18:00,
2013-07-02 03:24:00,68.9,59.0,28.67,South,190,3.6,3.6,70,0.00,,,-99.99,wx200d/1.3,2013-07-02 07:24:00,
2013-07-02 03:30:00,68.9,59.0,28.67,WSW,251,2.2,2.2,70,0.00,,,-99.99,wx200d/1.3,2013-07-02 07:30:00,
2013-07-02 03:36:00,68.9,59.0,28.67,SW,225,0.0,0.0,70,0.00,,,-99.99,wx200d/1.3,2013-07-02 07:36:00,
2013-07-02 03:42:00,68.9,59.0,28.67,SSW,205,0.0,5.8,70,0.00,,,-99.99,wx200d/1.3,2013-07-02 07:42:00,
2013-07-02 03:48:00,68.9,59.0,28.67,SSE,165,2.2,3.6,70,0.00,,,-99.99,wx200d/1.3,2013-07-02 07:48:00,
2013-07-02 03:54:00,68.9,59.0,28.67,SSW,201,2.2,2.7,70,0.00,,,-99.99,wx200d/1.3,2013-07-02 07:54:00,
2013-07-02 04:00:00,68.9,59.0,28.67,SSW,211,2.7,12.3,70,0.00,,,-99.99,wx200d/1.3,2013-07-02 08:00:00,
2013-07-02 04:06:00,68.9,59.0,28.70,WNW,287,0.0,3.6,70,0.00,,,-99.99,wx200d/1.3,2013-07-02 08:06:00,
2013-07-02 04:12:00,68.9,59.0,28.70,SSW,198,3.6,4.0,70,0.00,,,-99.99,wx200d/1.3,2013-07-02 08:12:00,
2013-07-02 04:18:00,68.9,59.0,28.70,WSW,244,2.2,3.6,70,0.00,,,-99.99,wx200d/1.3,2013-07-02 08:18:00,
2013-07-02 04:24:00,69.1,59.0,28.70,West,259,2.7,0.0,70,0.00,,,-99.99,wx200d/1.3,2013-07-02 08:24:00,
2013-07-02 04:30:00,69.1,59.0,28.70,West,263,2.2,0.0,70,0.00,,,-99.99,wx200d/1.3,2013-07-02 08:30:00,
2013-07-02 04:36:00,69.1,59.0,28.70,SW,220,2.2,2.7,70,0.00,,,-99.99,wx200d/1.3,2013-07-02 08:36:00,
2013-07-02 04:42:00,69.1,59.0,28.70,West,260,0.0,0.0,70,0.00,,,-99.99,wx200d/1.3,2013-07-02 08:42:00,
2013-07-02 04:48:00,69.1,59.0,28.70,West,262,0.0,5.4,70,0.00,,,-99.99,wx200d/1.3,2013-07-02 08:48:00,
2013-07-02 04:54:00,69.1,59.0,28.70,SSE,167,3.6,0.0,70,0.00,,,-99.99,wx200d/1.3,2013-07-02 08:54:00,
2013-07-02 05:00:00,69.1,59.0,28.70,WSW,257,0.0,0.0,70,0.00,,,-99.99,wx200d/1.3,2013-07-02 09:00:00,
2013-07-02 05:06:00,69.1,59.0,28.70,SSW,199,2.2,0.0,70,0.00,,,-99.99,wx200d/1.3,2013-07-02 09:06:00,
2013-07-02 05:12:00,69.1,59.0,28.70,West,267,3.1,0.0,70,0.00,,,-99.99,wx200d/1.3,2013-07-02 09:12:00,
2013-07-02 05:18:00,69.1,59.0,28.70,South,177,0.0,2.7,70,0.00,,,-99.99,wx200d/1.3,2013-07-02 09:18:00,
2013-07-02 05:24:00,69.1,59.0,28.70,SW,220,2.2,4.9,70,0.00,,,-99.99,wx200d/1.3,2013-07-02 09:24:00,
2013-07-02 05:30:00,69.1,59.0,28.70,WSW,248,2.7,4.0,70,0.00,,,-99.99,wx200d/1.3,2013-07-02 09:30:00,
2013-07-02 05:36:00,69.3,59.0,28.70,South,186,0.0,5.4,70,0.00,,,-99.99,wx200d/1.3,2013-07-02 09:36:00,
2013-07-02 05:42:00,69.3,61.0,28.70,SW,231,2.7,3.6,71,0.00,,,-99.99,wx200d/1.3,2013-07-02 09:42:00,
2013-07-02 05:48:00,69.3,61.0,28.70,SSW,208,2.2,2.2,71,0.00,,,-99.99,wx200d/1.3,2013-07-02 09:48:00,
2013-07-02 05:54:00,69.3,61.0,28.70,WNW,282,2.2,2.2,71,0.00,,,-99.99,wx200d/1.3,2013-07-02 09:54:00,
2013-07-02 06:00:00,69.3,61.0,28.70,WSW,252,0.0,0.0,71,0.00,,,-99.99,wx200d/1.3,2013-07-02 10:00:00,
2013-07-02 06:06:00,69.3,61.0,28.70,South,190,4.5,4.5,71,0.00,,,-99.99,wx200d/1.3,2013-07-02 10:06:00,
2013-07-02 06:12:00,69.4,61.0,28.70,SSE,155,0.0,3.1,71,0.00,,,-99.99,wx200d/1.3,2013-07-02 10:12:00,
2013-07-02 06:18:00,69.4,61.0,28.70,SE,145,3.1,3.1,71,0.00,,,-99.99,wx200d/1.3,2013-07-02 10:18:00,
2013-07-02 06:24:00,69.4,61.0,28.70,West,263,0.0,0.0,71,0.00,,,-99.99,wx200d/1.3,2013-07-02 10:24:00,
2013-07-02 06:30:00,69.4,61.0,28.70,South,171,0.0,5.8,71,0.00,,,-99.99,wx200d/1.3,2013-07-02 10:30:00,
2013-07-02 06:36:00,69.4,61.0,28.73,SSW,192,0.0,4.5,71,0.00,,,-99.99,wx200d/1.3,2013-07-02 10:36:00,
2013-07-02 06:42:00,69.6,61.0,28.73,South,186,3.6,0.0,71,0.00,,,-99.99,wx200d/1.3,2013-07-02 10:42:00,
2013-07-02 06:48:00,69.6,61.0,28.73,SSE,165,0.0,5.8,71,0.00,,,-99.99,wx200d/1.3,2013-07-02 10:48:00,
2013-07-02 06:54:00,69.6,61.0,28.73,West,273,2.7,2.7,71,0.00,,,-99.99,wx200d/1.3,2013-07-02 10:54:00,
2013-07-02 07:00:00,69.6,61.0,28.73,West,259,0.0,4.5,71,0.00,,,-99.99,wx200d/1.3,2013-07-02 11:00:00,
2013-07-02 07:06:00,69.8,59.0,28.73,SSE,159,4.0,4.5,70,0.00,,,-99.99,wx200d/1.3,2013-07-02 11:06:00,
2013-07-02 07:12:00,69.8,59.0,28.73,SSW,195,4.9,0.0,70,0.00,,,-99.99,wx200d/1.3,2013-07-02 11:12:00,
2013-07-02 07:18:00,70.0,59.0,28.73,SW,216,2.2,2.2,70,0.00,,,-99.99,wx200d/1.3,2013-07-02 11:18:00,
2013-07-02 07:24:00,70.0,59.0,28.73,SSW,192,0.0,2.2,70,0.00,,,-99.99,wx200d/1.3,2013-07-02 11:24:00,
2013-07-02 07:30:00,70.0,59.0,28.73,SSW,193,0.0,2.7,70,0.00,,,-99.99,wx200d/1.3,2013-07-02 11:30:00,
2013-07-02 07:36:00,70.0,59.0,28.73,South,183,0.0,0.0,70,0.00,,,-99.99,wx200d/1.3,2013-07-02 11:36:00,
2013-07-02 07:42:00,70.0,59.0,28.73,West,278,0.0,3.6,70,0.00,,,-99.99,wx200d/1.3,2013-07-02 11:42:00,
2013-07-02 07:48:00,70.2,59.0,28.73,WSW,240,0.0,2.7,70,0.00,,,-99.99,wx200d/1.3,2013-07-02 11:48:00,
2013-07-02 07:54:00,70.2,59.0,28.73,WSW,238,0.0,0.0,70,0.00,,,-99.99,wx200d/1.3,2013-07-02 11:54:00,
2013-07-02 08:00:00,70.2,59.0,28.73,SSW,207,0.0,4.9,70,0.00,,,-99.99,wx200d/1.3,2013-07-02 12:00:00,
2013-07-02 08:06:00,70.2,59.0,28.73,SSW,198,0.0,0.0,69,0.00,,,-99.99,wx200d/1.3,2013-07-02 12:06:00,
2013-07-02 08:12:00,70.2,59.0,28.73,South,186,2.2,0.0,69,0.00,,,-99.99,wx200d/1.3,2013-07-02 12:12:00,
2013-07-02 08:18:00,70.0,59.0,28.73,South,191,0.0,2.7,69,0.00,,,-99.99,wx200d/1.3,2013-07-02 12:18:00,
2013-07-02 08:24:00,70.0,59.0,28.73,SW,215,0.0,3.1,68,0.00,,,-99.99,wx200d/1.3,2013-07-02 12:24:00,
2013-07-02 08:30:00,70.0,59.0,28.73,WSW,239,0.0,0.0,67,0.00,,,-99.99,wx200d/1.3,2013-07-02 12:30:00,
2013-07-02 08:36:00,70.0,57.0,28.73,WSW,254,2.7,4.9,66,0.00,,,-99.99,wx200d/1.3,2013-07-02 12:36:00,
2013-07-02 08:42:00,70.0,57.0,28.73,SSW,195,2.7,3.6,66,0.00,,,-99.99,wx200d/1.3,2013-07-02 12:42:00,
2013-07-02 08:48:00,70.0,57.0,28.73,West,271,0.0,0.0,66,0.00,,,-99.99,wx200d/1.3,2013-07-02 12:48:00,
2013-07-02 08:54:00,70.2,57.0,28.73,SSE,150,0.0,2.2,66,0.00,,,-99.99,wx200d/1.3,2013-07-02 12:54:00,
2013-07-02 09:00:00,70.2,57.0,28.73,South,188,4.0,4.0,65,0.00,,,-99.99,wx200d/1.3,2013-07-02 13:00:00,
2013-07-02 09:06:00,70.2,57.0,28.73,West,262,3.1,0.0,65,0.00,,,-99.99,wx200d/1.3,2013-07-02 13:06:00,
2013-07-02 09:12:00,70.3,57.0,28.73,East,96,0.0,0.0,65,0.00,,,-99.99,wx200d/1.3,2013-07-02 13:12:00,
2013-07-02 09:18:00,70.3,57.0,28.73,WSW,244,0.0,2.2,65,0.00,,,-99.99,wx200d/1.3,2013-07-02 13:18:00,
2013-07-02 09:24:00,70.5,57.0,28.73,WSW,254,0.0,3.1,65,0.00,,,-99.99,wx200d/1.3,2013-07-02 13:24:00,
2013-07-02 09:30:00,70.7,59.0,28.73,South,176,0.0,5.4,65,0.00,,,-99.99,wx200d/1.3,2013-07-02 13:30:00,
2013-07-02 09:36:00,70.7,59.0,28.73,SSE,149,2.2,0.0,64,0.00,,,-99.99,wx200d/1.3,2013-07-02 13:36:00,
2013-07-02 09:42:00,70.9,59.0,28.73,SSW,195,4.0,0.0,63,0.00,,,-99.99,wx200d/1.3,2013-07-02 13:42:00,
2013-07-02 09:48:00,70.7,55.0,28.73,WSW,250,2.2,4.9,57,0.00,,,-99.99,wx200d/1.3,2013-07-02 13:48:00,
2013-07-02 09:54:00,70.7,52.0,28.73,South,189,2.2,5.8,50,0.00,,,-99.99,wx200d/1.3,2013-07-02 13:54:00,
2013-07-02 10:00:00,70.7,48.0,28.73,SSW,192,4.0,6.3,44,0.00,,,-99.99,wx200d/1.3,2013-07-02 14:00:00,
2013-07-02 10:06:00,70.9,48.0,28.73,SW,216,4.0,8.3,44,0.00,,,-99.99,wx200d/1.3,2013-07-02 14:06:00,
2013-07-02 10:12:00,71.2,48.0,28.73,West,277,0.0,0.0,43,0.00,,,-99.99,wx200d/1.3,2013-07-02 14:12:00,
2013-07-02 10:18:00,71.8,46.0,28.73,SW,222,3.1,3.1,41,0.00,,,-99.99,wx200d/1.3,2013-07-02 14:18:00,
2013-07-02 10:24:00,72.0,45.0,28.73,WSW,251,0.0,0.0,39,0.00,,,-99.99,wx200d/1.3,2013-07-02 14:24:00,
2013-07-02 10:30:00,71.8,43.0,28.73,West,275,3.1,3.1,36,0.00,,,-99.99,wx200d/1.3,2013-07-02 14:30:00,
2013-07-02 10:36:00,71.8,43.0,28.73,South,175,0.0,2.2,36,0.00,,,-99.99,wx200d/1.3,2013-07-02 14:36:00,
2013-07-02 10:42:00,72.0,43.0,28.73,SSW,202,0.0,0.0,36,0.00,,,-99.99,wx200d/1.3,2013-07-02 14:42:00,
2013-07-02 10:48:00,72.3,43.0,28.73,WNW,285,0.0,0.0,36,0.00,,,-99.99,wx200d/1.3,2013-07-02 14:48:00,
2013-07-02 10:54:00,72.5,45.0,28.73,South,175,0.0,2.7,36,0.00,,,-99.99,wx200d/1.3,2013-07-02 14:54:00,
2013-07-02 11:00:00,72.3,43.0,28.73,WNW,284,2.2,2.7,34,0.00,,,-99.99,wx200d/1.3,2013-07-02 15:00:00,
2013-07-02 11:06:00,72.3,43.0,28.73,West,261,3.1,3.1,34,0.00,,,-99.99,wx200d/1.3,2013-07-02 15:06:00,
2013-07-02 11:12:00,72.3,43.0,28.73,West,271,0.0,0.0,35,0.00,,,-99.99,wx200d/1.3,2013-07-02 15:12:00,
2013-07-02 11:18:00,72.5,45.0,28.73,SSW,206,0.0,3.6,35,0.00,,,-99.99,wx200d/1.3,2013-07-02 15:18:00,
2013-07-02 11:24:00,73.0,45.0,28.73,SSE,163,3.1,3.6,36,0.00,,,-99.99,wx200d/1.3,2013-07-02 15:24:00,
2013-07-02 11:30:00,73.6,45.0,28.73,SSW,198,0.0,0.0,35,0.00,,,-99.99,wx200d/1.3,2013-07-02 15:30:00,
2013-07-02 11:36:00,73.9,45.0,28.76,SSE,153,0.0,2.7,35,0.00,,,-99.99,wx200d/1.3,2013-07-02 15:36:00,
2013-07-02 11:42:00,74.1,41.0,28.76,WSW,238,2.7,5.8,31,0.00,,,-99.99,wx200d/1.3,2013-07-02 15:42:00,
2013-07-02 11:48:00,74.5,41.0,28.76,West,269,0.0,2.7,30,0.00,,,-99.99,wx200d/1.3,2013-07-02 15:48:00,
2013-07-02 11:54:00,74.3,39.0,28.76,SSW,202,3.1,0.0,27,0.00,,,-99.99,wx200d/1.3,2013-07-02 15:54:00,
2013-07-02 12:00:00,74.3,37.0,28.76,SE,143,4.5,4.5,26,0.00,,,-99.99,wx200d/1.3,2013-07-02 16:00:00,
2013-07-02 12:06:00,74.1,37.0,28.73,SSE,166,4.5,4.5,26,0.00,,,-99.99,wx200d/1.3,2013-07-02 16:06:00,
2013-07-02 12:12:00,74.1,41.0,28.73,South,176,0.0,6.3,30,0.00,,,-99.99,wx200d/1.3,2013-07-02 16:12:00,
2013-07-02 12:18:00,73.9,41.0,28.73,SSW,206,4.0,4.0,31,0.00,,,-99.99,wx200d/1.3,2013-07-02 16:18:00,
2013-07-02 12:24:00,74.1,41.0,28.76,SSW,202,0.0,3.1,32,0.00,,,-99.99,wx200d/1.3,2013-07-02 16:24:00,
2013-07-02 12:30:00,74.7,41.0,28.76,SE,134,3.6,10.5,29,0.00,,,-99.99,wx200d/1.3,2013-07-02 16:30:00,
2013-07-02 12:36:00,75.2,37.0,28.76,South,175,0.0,5.4,26,0.00,,,-99.99,wx200d/1.3,2013-07-02 16:36:00,
2013-07-02 12:42:00,75.4,36.0,28.76,South,178,2.7,3.6,24,0.00,,,-99.99,wx200d/1.3,2013-07-02 16:42:00,
2013-07-02 12:48:00,75.6,36.0,28.76,SSE,167,2.2,4.0,23,0.00,,,-99.99,wx200d/1.3,2013-07-02 16:48:00,
2013-07-02 12:54:00,75.2,36.0,28.73,SSE,161,2.2,8.7,23,0.00,,,-99.99,wx200d/1.3,2013-07-02 16:54:00,
2013-07-02 13:00:00,75.6,36.0,28.73,South,172,2.7,0.0,23,0.00,,,-99.99,wx200d/1.3,2013-07-02 17:00:00,
2013-07-02 13:06:00,75.7,36.0,28.76,WSW,258,0.0,0.0,24,0.00,,,-99.99,wx200d/1.3,2013-07-02 17:06:00,
2013-07-02 13:08:00,75.6,37.0,28.76,SW,216,0.0,0.0,25,0.00,,,-99.99,wx200d/1.3,2013-07-02 17:08:00,
2013-07-02 13:14:00,75.4,36.0,28.76,NW,321,4.0,0.0,24,0.00,,,-99.99,wx200d/1.3,2013-07-02 17:14:00,
2013-07-02 13:20:00,75.4,36.0,28.73,West,276,2.2,3.1,23,0.00,,,-99.99,wx200d/1.3,2013-07-02 17:20:00,
2013-07-02 13:26:00,75.4,34.0,28.73,SSW,193,0.0,3.6,22,0.00,,,-99.99,wx200d/1.3,2013-07-02 17:26:00,
2013-07-02 13:32:00,75.4,34.0,28.73,South,185,4.9,5.4,22,0.00,,,-99.99,wx200d/1.3,2013-07-02 17:32:00,
2013-07-02 13:38:00,75.6,34.0,28.76,South,189,3.6,3.6,22,0.00,,,-99.99,wx200d/1.3,2013-07-02 17:38:00,
2013-07-02 13:44:00,75.2,34.0,28.76,West,261,4.0,0.0,22,0.00,,,-99.99,wx200d/1.3,2013-07-02 17:44:00,
2013-07-02 13:50:00,75.0,36.0,28.76,South,176,3.1,3.1,23,0.00,,,-99.99,wx200d/1.3,2013-07-02 17:50:00,
2013-07-02 13:56:00,75.0,36.0,28.76,NNW,338,3.1,3.1,23,0.00,,,-99.99,wx200d/1.3,2013-07-02 17:56:00,
2013-07-02 14:02:00,75.2,36.0,28.76,South,171,2.2,4.0,23,0.00,,,-99.99,wx200d/1.3,2013-07-02 18:02:00,
2013-07-02 14:08:00,75.4,36.0,28.76,WSW,248,2.2,3.1,23,0.00,,,-99.99,wx200d/1.3,2013-07-02 18:08:00,
2013-07-02 14:14:00,75.4,34.0,28.76,NE,40,2.7,2.7,22,0.00,,,-99.99,wx200d/1.3,2013-07-02 18:14:00,
2013-07-02 14:20:00,76.3,36.0,28.73,South,180,2.2,3.6,22,0.00,,,-99.99,wx200d/1.3,2013-07-02 18:20:00,
2013-07-02 14:26:00,77.2,34.0,28.73,SSW,192,4.0,4.0,21,0.00,,,-99.99,wx200d/1.3,2013-07-02 18:26:00,
2013-07-02 14:32:00,77.4,34.0,28.73,West,281,3.6,0.0,20,0.00,,,-99.99,wx200d/1.3,2013-07-02 18:32:00,
2013-07-02 14:38:00,77.9,34.0,28.73,SW,216,5.8,6.3,20,0.00,,,-99.99,wx200d/1.3,2013-07-02 18:38:00,
2013-07-02 14:44:00,77.9,34.0,28.73,SSE,158,4.0,4.0,20,0.00,,,-99.99,wx200d/1.3,2013-07-02 18:44:00,
2013-07-02 14:50:00,77.4,34.0,28.73,South,171,3.6,3.6,20,0.00,,,-99.99,wx200d/1.3,2013-07-02 18:50:00,
2013-07-02 14:56:00,77.2,34.0,28.73,WSW,249,3.6,3.6,20,0.00,,,-99.99,wx200d/1.3,2013-07-02 18:56:00,
2013-07-02 15:02:00,77.5,34.0,28.73,South,181,2.7,4.9,20,0.00,,,-99.99,wx200d/1.3,2013-07-02 19:02:00,
2013-07-02 15:08:00,77.2,34.0,28.73,SE,142,3.6,6.3,20,0.00,,,-99.99,wx200d/1.3,2013-07-02 19:08:00,
2013-07-02 15:14:00,77.0,34.0,28.73,South,178,5.8,5.8,20,0.00,,,-99.99,wx200d/1.3,2013-07-02 19:14:00,
2013-07-02 15:20:00,77.2,34.0,28.73,SSE,155,4.0,4.0,20,0.00,,,-99.99,wx200d/1.3,2013-07-02 19:20:00,
2013-07-02 15:26:00,77.5,34.0,28.73,South,170,5.4,5.4,20,0.00,,,-99.99,wx200d/1.3,2013-07-02 19:26:00,
2013-07-02 15:32:00,77.2,34.0,28.73,SW,232,4.9,4.9,20,0.00,,,-99.99,wx200d/1.3,2013-07-02 19:32:00,
2013-07-02 15:38:00,77.4,34.0,28.73,South,181,6.3,6.3,20,0.00,,,-99.99,wx200d/1.3,2013-07-02 19:38:00,
2013-07-02 15:44:00,76.6,34.0,28.73,WSW,251,2.7,3.1,21,0.00,,,-99.99,wx200d/1.3,2013-07-02 19:44:00,
2013-07-02 15:50:00,77.0,34.0,28.73,SSW,203,0.0,3.6,21,0.00,,,-99.99,wx200d/1.3,2013-07-02 19:50:00,
2013-07-02 15:56:00,77.5,34.0,28.73,SSE,167,4.0,0.0,20,0.00,,,-99.99,wx200d/1.3,2013-07-02 19:56:00,
2013-07-02 16:02:00,77.7,34.0,28.73,SSE,149,2.7,5.8,20,0.00,,,-99.99,wx200d/1.3,2013-07-02 20:02:00,
2013-07-02 16:08:00,77.5,34.0,28.73,SE,144,4.0,4.0,20,0.00,,,-99.99,wx200d/1.3,2013-07-02 20:08:00,
2013-07-02 16:14:00,77.7,34.0,28.73,South,172,2.2,4.9,20,0.00,,,-99.99,wx200d/1.3,2013-07-02 20:14:00,
2013-07-02 16:20:00,77.7,34.0,28.73,SSE,164,2.7,0.0,20,0.00,,,-99.99,wx200d/1.3,2013-07-02 20:20:00,
2013-07-02 16:26:00,77.5,34.0,28.73,SSW,212,2.7,0.0,20,0.00,,,-99.99,wx200d/1.3,2013-07-02 20:26:00,
2013-07-02 16:32:00,77.2,34.0,28.73,South,189,4.5,4.5,20,0.00,,,-99.99,wx200d/1.3,2013-07-02 20:32:00,
2013-07-02 16:38:00,77.2,34.0,28.73,South,184,4.5,0.0,20,0.00,,,-99.99,wx200d/1.3,2013-07-02 20:38:00,
2013-07-02 16:44:00,77.2,34.0,28.73,South,182,2.2,0.0,20,0.00,,,-99.99,wx200d/1.3,2013-07-02 20:44:00,
2013-07-02 16:50:00,77.4,34.0,28.73,South,171,5.4,5.4,20,0.00,,,-99.99,wx200d/1.3,2013-07-02 20:50:00,
2013-07-02 16:56:00,77.0,34.0,28.73,SSW,195,3.1,3.1,20,0.00,,,-99.99,wx200d/1.3,2013-07-02 20:56:00,
2013-07-02 17:02:00,76.6,34.0,28.73,South,171,2.7,3.6,20,0.00,,,-99.99,wx200d/1.3,2013-07-02 21:02:00,
2013-07-02 17:08:00,76.6,34.0,28.73,WSW,237,0.0,5.4,21,0.00,,,-99.99,wx200d/1.3,2013-07-02 21:08:00,
2013-07-02 17:14:00,76.5,34.0,28.73,SE,141,3.1,4.9,20,0.00,,,-99.99,wx200d/1.3,2013-07-02 21:14:00,
2013-07-02 17:20:00,76.3,34.0,28.73,WSW,241,0.0,2.7,21,0.00,,,-99.99,wx200d/1.3,2013-07-02 21:20:00,
2013-07-02 17:26:00,76.1,34.0,28.73,WNW,287,2.7,0.0,21,0.00,,,-99.99,wx200d/1.3,2013-07-02 21:26:00,
2013-07-02 17:32:00,75.9,32.0,28.73,South,190,0.0,5.4,21,0.00,,,-99.99,wx200d/1.3,2013-07-02 21:32:00,
2013-07-02 17:38:00,75.9,32.0,28.73,West,261,2.2,4.0,21,0.00,,,-99.99,wx200d/1.3,2013-07-02 21:38:00,
2013-07-02 17:44:00,75.9,34.0,28.73,South,179,0.0,2.7,22,0.00,,,-99.99,wx200d/1.3,2013-07-02 21:44:00,
2013-07-02 17:50:00,75.9,32.0,28.73,South,182,2.7,3.1,21,0.00,,,-99.99,wx200d/1.3,2013-07-02 21:50:00,
2013-07-02 17:56:00,75.0,34.0,28.73,South,174,3.1,7.6,22,0.00,,,-99.99,wx200d/1.3,2013-07-02 21:56:00,
2013-07-02 18:02:00,73.4,36.0,28.73,WNW,284,0.0,2.7,25,0.00,,,-99.99,wx200d/1.3,2013-07-02 22:02:00,
2013-07-02 18:08:00,72.9,41.0,28.73,SSW,211,0.0,2.2,32,0.00,,,-99.99,wx200d/1.3,2013-07-02 22:08:00,
2013-07-02 18:14:00,72.9,43.0,28.73,SW,235,0.0,4.5,33,0.00,,,-99.99,wx200d/1.3,2013-07-02 22:14:00,
2013-07-02 18:20:00,72.9,43.0,28.73,SE,127,0.0,0.0,33,0.00,,,-99.99,wx200d/1.3,2013-07-02 22:20:00,
2013-07-02 18:26:00,72.9,43.0,28.73,SW,218,0.0,0.0,33,0.00,,,-99.99,wx200d/1.3,2013-07-02 22:26:00,
2013-07-02 18:32:00,73.0,43.0,28.73,SSE,159,0.0,0.0,34,0.00,,,-99.99,wx200d/1.3,2013-07-02 22:32:00,
2013-07-02 18:38:00,73.0,43.0,28.73,SSE,161,0.0,0.0,34,0.00,,,-99.99,wx200d/1.3,2013-07-02 22:38:00,
2013-07-02 18:44:00,73.2,43.0,28.73,South,185,0.0,3.1,34,0.00,,,-99.99,wx200d/1.3,2013-07-02 22:44:00,
2013-07-02 18:50:00,73.6,41.0,28.73,South,169,0.0,0.0,32,0.00,,,-99.99,wx200d/1.3,2013-07-02 22:50:00,
2013-07-02 18:56:00,73.6,43.0,28.73,WSW,243,0.0,0.0,33,0.00,,,-99.99,wx200d/1.3,2013-07-02 22:56:00,
2013-07-02 19:02:00,73.6,43.0,28.73,SW,233,0.0,0.0,33,0.00,,,-99.99,wx200d/1.3,2013-07-02 23:02:00,
2013-07-02 19:08:00,73.2,43.0,28.76,SSW,197,0.0,0.0,33,0.00,,,-99.99,wx200d/1.3,2013-07-02 23:08:00,
2013-07-02 19:14:00,72.5,43.0,28.76,North,0,0.0,0.0,33,0.00,,,-99.99,wx200d/1.3,2013-07-02 23:14:00,
2013-07-02 19:20:00,71.8,41.0,28.76,WNW,287,0.0,0.0,33,0.00,,,-99.99,wx200d/1.3,2013-07-02 23:20:00,
2013-07-02 19:26:00,71.2,43.0,28.76,North,357,0.0,0.0,34,0.00,,,-99.99,wx200d/1.3,2013-07-02 23:26:00,
2013-07-02 19:32:00,70.7,43.0,28.76,NNE,12,0.0,0.0,34,0.00,,,-99.99,wx200d/1.3,2013-07-02 23:32:00,
2013-07-02 19:36:00,70.5,41.0,28.73,NNW,338,0.0,0.0,34,0.00,,,-99.99,wx200d/1.3,2013-07-02 23:36:00,
2013-07-02 19:42:00,70.2,41.0,28.73,NNW,338,0.0,0.0,34,0.00,,,-99.99,wx200d/1.3,2013-07-02 23:42:00,
2013-07-02 19:48:00,69.8,41.0,28.73,NNW,338,0.0,0.0,34,0.00,,,-99.99,wx200d/1.3,2013-07-02 23:48:00,
2013-07-02 19:54:00,69.6,41.0,28.76,NNW,338,0.0,0.0,35,0.00,,,-99.99,wx200d/1.3,2013-07-02 23:54:00,
2013-07-02 19:56:00,69.4,41.0,28.76,NNW,338,0.0,0.0,35,0.00,,,-99.99,wx200d/1.3,2013-07-02 23:56:00,
2013-07-02 20:02:00,69.3,41.0,28.76,NNW,332,0.0,0.0,35,0.00,,,-99.99,wx200d/1.3,2013-07-03 00:02:00,
2013-07-02 20:08:00,68.9,41.0,28.76,SSW,204,0.0,0.0,35,0.00,,,-99.99,wx200d/1.3,2013-07-03 00:08:00,
2013-07-02 20:14:00,68.5,39.0,28.76,WNW,303,0.0,0.0,35,0.00,,,-99.99,wx200d/1.3,2013-07-03 00:14:00,
2013-07-02 20:20:00,68.4,39.0,28.76,NNW,344,0.0,0.0,35,0.00,,,-99.99,wx200d/1.3,2013-07-03 00:20:00,
2013-07-02 20:26:00,68.2,41.0,28.76,NNW,342,0.0,0.0,36,0.00,,,-99.99,wx200d/1.3,2013-07-03 00:26:00,
2013-07-02 20:32:00,67.8,41.0,28.76,NNW,342,0.0,0.0,36,0.00,,,-99.99,wx200d/1.3,2013-07-03 00:32:00,
2013-07-02 20:38:00,67.6,41.0,28.76,SSW,196,0.0,0.0,36,0.00,,,-99.99,wx200d/1.3,2013-07-03 00:38:00,
2013-07-02 20:44:00,67.5,41.0,28.76,North,353,0.0,0.0,37,0.00,,,-99.99,wx200d/1.3,2013-07-03 00:44:00,
2013-07-02 20:50:00,67.3,41.0,28.79,WNW,302,0.0,0.0,37,0.00,,,-99.99,wx200d/1.3,2013-07-03 00:50:00,
2013-07-02 20:56:00,67.1,41.0,28.79,WNW,302,0.0,0.0,37,0.00,,,-99.99,wx200d/1.3,2013-07-03 00:56:00,
2013-07-02 21:02:00,67.1,41.0,28.79,West,278,0.0,0.0,38,0.00,,,-99.99,wx200d/1.3,2013-07-03 01:02:00,
2013-07-02 21:08:00,66.9,39.0,28.76,North,1,0.0,0.0,38,0.00,,,-99.99,wx200d/1.3,2013-07-03 01:08:00,
2013-07-02 21:12:00,66.9,39.0,28.76,SE,137,0.0,0.0,38,0.00,,,-99.99,wx200d/1.3,2013-07-03 01:12:00,
2013-07-02 21:18:00,66.7,41.0,28.76,SSW,193,0.0,0.0,39,0.00,,,-99.99,wx200d/1.3,2013-07-03 01:18:00,
2013-07-02 21:24:00,66.6,41.0,28.76,SE,126,0.0,0.0,39,0.00,,,-99.99,wx200d/1.3,2013-07-03 01:24:00,
2013-07-02 21:30:00,66.6,41.0,28.76,SSW,196,0.0,0.0,39,0.00,,,-99.99,wx200d/1.3,2013-07-03 01:30:00,
2013-07-02 21:36:00,66.6,41.0,28.79,SSW,204,0.0,0.0,39,0.00,,,-99.99,wx200d/1.3,2013-07-03 01:36:00,
2013-07-02 21:42:00,66.4,41.0,28.79,North,350,0.0,0.0,39,0.00,,,-99.99,wx200d/1.3,2013-07-03 01:42:00,
2013-07-02 21:48:00,66.4,41.0,28.79,SSE,158,0.0,0.0,40,0.00,,,-99.99,wx200d/1.3,2013-07-03 01:48:00,
2013-07-02 21:50:00,66.4,41.0,28.79,SSE,158,0.0,0.0,40,0.00,,,-99.99,wx200d/1.3,2013-07-03 01:50:00,
2013-07-02 21:56:00,66.2,41.0,28.79,SSE,156,0.0,0.0,40,0.00,,,-99.99,wx200d/1.3,2013-07-03 01:56:00,
2013-07-02 21:58:00,66.2,41.0,28.79,SSE,156,0.0,0.0,40,0.00,,,-99.99,wx200d/1.3,2013-07-03 01:58:00,
2013-07-02 22:04:00,66.2,41.0,28.79,SW,217,0.0,0.0,40,0.00,,,-99.99,wx200d/1.3,2013-07-03 02:04:00,
2013-07-02 22:10:00,66.2,41.0,28.79,SSE,162,0.0,0.0,41,0.00,,,-99.99,wx200d/1.3,2013-07-03 02:10:00,
2013-07-02 22:16:00,66.0,41.0,28.79,ESE,118,0.0,0.0,41,0.00,,,-99.99,wx200d/1.3,2013-07-03 02:16:00,
2013-07-02 22:22:00,66.0,43.0,28.79,SW,230,0.0,0.0,42,0.00,,,-99.99,wx200d/1.3,2013-07-03 02:22:00,
2013-07-02 22:28:00,65.8,43.0,28.79,SSW,202,0.0,0.0,42,0.00,,,-99.99,wx200d/1.3,2013-07-03 02:28:00,
2013-07-02 22:36:00,65.8,43.0,28.79,West,270,0.0,0.0,42,0.00,,,-99.99,wx200d/1.3,2013-07-03 02:36:00,
2013-07-02 22:42:00,65.8,43.0,28.79,South,178,0.0,0.0,42,0.00,,,-99.99,wx200d/1.3,2013-07-03 02:42:00,
2013-07-02 22:48:00,65.8,43.0,28.79,WSW,240,0.0,0.0,42,0.00,,,-99.99,wx200d/1.3,2013-07-03 02:48:00,
2013-07-02 22:56:00,65.8,43.0,28.79,West,260,0.0,0.0,43,0.00,,,-99.99,wx200d/1.3,2013-07-03 02:56:00,
2013-07-02 22:58:00,65.8,43.0,28.79,SE,131,0.0,0.0,43,0.00,,,-99.99,wx200d/1.3,2013-07-03 02:58:00,
2013-07-02 23:04:00,65.8,43.0,28.79,South,169,0.0,0.0,43,0.00,,,-99.99,wx200d/1.3,2013-07-03 03:04:00,
2013-07-02 23:10:00,65.8,43.0,28.79,SSE,163,0.0,0.0,43,0.00,,,-99.99,wx200d/1.3,2013-07-03 03:10:00,
2013-07-02 23:18:00,66.0,43.0,28.79,SSW,196,0.0,0.0,43,0.00,,,-99.99,wx200d/1.3,2013-07-03 03:18:00,
2013-07-02 23:24:00,65.8,43.0,28.79,SSE,164,0.0,0.0,43,0.00,,,-99.99,wx200d/1.3,2013-07-03 03:24:00,
2013-07-02 23:30:00,66.0,43.0,28.79,South,178,0.0,0.0,44,0.00,,,-99.99,wx200d/1.3,2013-07-03 03:30:00,
2013-07-02 23:34:00,66.0,43.0,28.79,WSW,240,0.0,0.0,44,0.00,,,-99.99,wx200d/1.3,2013-07-03 03:34:00,
2013-07-02 23:38:00,66.0,43.0,28.79,South,191,0.0,0.0,44,0.00,,,-99.99,wx200d/1.3,2013-07-03 03:38:00,
2013-07-02 23:44:00,66.0,43.0,28.79,West,281,0.0,0.0,44,0.00,,,-99.99,wx200d/1.3,2013-07-03 03:44:00,
2013-07-02 23:50:00,66.0,43.0,28.79,West,278,0.0,0.0,44,0.00,,,-99.99,wx200d/1.3,2013-07-03 03:50:00,
2013-07-02 23:52:00,66.0,43.0,28.79,West,278,0.0,0.0,44,0.00,,,-99.99,wx200d/1.3,2013-07-03 03:52:00,
2013-07-02 23:58:00,66.0,43.0,28.79,West,278,0.0,0.0,44,0.00,,,-99.99,wx200d/1.3,2013-07-03 03:58:00,